When you browse on this site, cookies collect data to enhance your experience and personalize the content and advertising you see.
Visit our Privacy Policy to learn more. By continuing to use the site, you agree to this use of cookies and data.
  • In Hungary
  • List of Countries
  • For 7 days
  • Water Temperature
  • Satellite Maps
  • Weather Map
  • News
  • Weather Widgets
  • user-avatar
    Login

    Hourly Weather Baia-Sprie

    Today, 21 March, Thursday

    Time Temperature Precipitation Wind Pressure Humidity
    00:00 +4°C° 0 mm 1 mps 721 mmHg 82%
    01:00 +3°C° 0 mm 1 mps 721 mmHg 83%
    02:00 +2°C° 0 mm 0 mps 721 mmHg 84%
    03:00 +1°C° 0 mm 0 mps 721 mmHg 85%
    04:00 +1°C° 0 mm 0 mps 721 mmHg 87%
    05:00 0°C° 0 mm 0 mps 721 mmHg 88%
    06:00 +1°C° 0 mm 0 mps 721 mmHg 85%
    07:00 +2°C° 0 mm 0 mps 722 mmHg 82%
    08:00 +3°C° 0 mm 0 mps 722 mmHg 77%
    09:00 +4°C° 0 mm 0 mps 722 mmHg 71%
    10:00 +6°C° 0 mm 1 mps 722 mmHg 66%
    11:00 +8°C° 0 mm 1 mps 722 mmHg 60%
    12:00 +8°C° 0 mm 2 mps 722 mmHg 57%
    13:00 +8°C° 0 mm 2 mps 721 mmHg 53%
    14:00 +9°C° 0 mm 2 mps 721 mmHg 49%
    15:00 +9°C° 0 mm 2 mps 721 mmHg 50%
    16:00 +9°C° 0 mm 2 mps 721 mmHg 51%
    17:00 +8°C° 0 mm 2 mps 720 mmHg 51%
    18:00 +7°C° 0 mm 2 mps 720 mmHg 57%
    19:00 +7°C° 0 mm 1 mps 720 mmHg 62%
    20:00 +5°C° 0 mm 1 mps 720 mmHg 67%
    21:00 +5°C° 0 mm 1 mps 720 mmHg 68%
    22:00 +4°C° 0 mm 1 mps 721 mmHg 69%
    23:00 +3°C° 0 mm 0 mps 721 mmHg 70%

    Tomorrow, 22 March, Friday

    Time Temperature Precipitation Wind Pressure Humidity
    00:00 +3°C° 0 mm 0 mps 721 mmHg 71%
    01:00 +2°C° 0 mm 0 mps 721 mmHg 72%
    02:00 +2°C° 0 mm 0 mps 721 mmHg 73%
    03:00 +2°C° 0 mm 0 mps 720 mmHg 73%
    04:00 +2°C° 0 mm 0 mps 720 mmHg 74%
    05:00 +2°C° 0 mm 0 mps 720 mmHg 74%
    06:00 +2°C° 0 mm 0 mps 720 mmHg 72%
    07:00 +3°C° 0 mm 0 mps 720 mmHg 70%
    08:00 +4°C° 0 mm 0 mps 720 mmHg 68%
    09:00 +5°C° 0 mm 0 mps 720 mmHg 65%
    10:00 +8°C° 0 mm 1 mps 720 mmHg 61%
    11:00 +10°C° 0 mm 1 mps 721 mmHg 58%
    12:00 +10°C° 0 mm 2 mps 720 mmHg 58%
    13:00 +12°C° 0 mm 2 mps 720 mmHg 58%
    14:00 +13°C° 0 mm 2 mps 720 mmHg 58%
    15:00 +13°C° 0 mm 2 mps 720 mmHg 61%
    16:00 +12°C° 0 mm 2 mps 720 mmHg 64%
    17:00 +11°C° 0 mm 3 mps 719 mmHg 67%
    18:00 +10°C° 0 mm 2 mps 719 mmHg 74%
    19:00 +8°C° 0 mm 2 mps 719 mmHg 81%
    20:00 +8°C° 0 mm 1 mps 719 mmHg 87%
    21:00 +7°C° 0 mm 1 mps 719 mmHg 88%
    22:00 +6°C° 0 mm 1 mps 719 mmHg 89%
    23:00 +6°C° 0 mm 1 mps 719 mmHg 90%

    Day after tomorrow, 23 March, Saturday

    Time Temperature Precipitation Wind Pressure Humidity
    00:00 +5°C° 0 mm 1 mps 719 mmHg 90%
    01:00 +5°C° 0 mm 1 mps 719 mmHg 90%
    02:00 +4°C° 0 mm 1 mps 719 mmHg 90%
    03:00 +4°C° 0 mm 1 mps 719 mmHg 90%
    04:00 +4°C° 0 mm 1 mps 718 mmHg 89%
    05:00 +3°C° 0 mm 1 mps 718 mmHg 89%
    06:00 +4°C° 0 mm 1 mps 718 mmHg 84%
    07:00 +5°C° 0 mm 1 mps 718 mmHg 80%
    08:00 +5°C° 0 mm 1 mps 718 mmHg 75%
    09:00 +7°C° 0 mm 1 mps 718 mmHg 65%
    10:00 +9°C° 0 mm 1 mps 718 mmHg 55%
    11:00 +12°C° 0 mm 1 mps 718 mmHg 45%
    12:00 +12°C° 0 mm 1 mps 718 mmHg 40%
    13:00 +13°C° 0 mm 2 mps 718 mmHg 36%
    14:00 +14°C° 0 mm 2 mps 717 mmHg 31%
    15:00 +14°C° 0 mm 2 mps 717 mmHg 32%
    16:00 +14°C° 0 mm 2 mps 717 mmHg 34%
    17:00 +14°C° 0 mm 2 mps 717 mmHg 35%
    18:00 +12°C° 0 mm 2 mps 717 mmHg 40%
    19:00 +10°C° 0 mm 1 mps 717 mmHg 44%
    20:00 +7°C° 0 mm 1 mps 716 mmHg 49%
    21:00 +7°C° 0 mm 1 mps 717 mmHg 50%
    22:00 +6°C° 0 mm 1 mps 717 mmHg 52%
    23:00 +5°C° 0 mm 1 mps 717 mmHg 53%

    24 March, Sunday

    Time Temperature Precipitation Wind Pressure Humidity
    00:00 +5°C° 0 mm 1 mps 716 mmHg 53%
    01:00 +5°C° 0 mm 1 mps 716 mmHg 54%
    02:00 +4°C° 0 mm 1 mps 716 mmHg 54%
    03:00 +4°C° 0 mm 1 mps 716 mmHg 54%
    04:00 +4°C° 0 mm 1 mps 715 mmHg 53%
    05:00 +3°C° 0 mm 1 mps 715 mmHg 53%
    06:00 +4°C° 0 mm 1 mps 715 mmHg 52%
    07:00 +5°C° 0 mm 1 mps 715 mmHg 50%
    08:00 +6°C° 0 mm 1 mps 715 mmHg 49%
    09:00 +8°C° 0 mm 1 mps 715 mmHg 45%
    10:00 +10°C° 0 mm 1 mps 715 mmHg 42%
    11:00 +12°C° 0 mm 1 mps 715 mmHg 39%
    12:00 +13°C° 0 mm 1 mps 715 mmHg 41%
    13:00 +14°C° 0 mm 2 mps 715 mmHg 43%
    14:00 +14°C° 0 mm 3 mps 715 mmHg 46%
    15:00 +13°C° 0 mm 3 mps 714 mmHg 50%
    16:00 +13°C° 0 mm 3 mps 714 mmHg 54%
    17:00 +13°C° 0 mm 3 mps 714 mmHg 58%
    18:00 +12°C° 0 mm 2 mps 714 mmHg 66%
    19:00 +10°C° 0 mm 1 mps 714 mmHg 73%
    20:00 +8°C° 0 mm 0 mps 713 mmHg 81%
    21:00 +7°C° 0 mm 0 mps 713 mmHg 82%
    22:00 +7°C° 0 mm 0 mps 713 mmHg 83%
    23:00 +7°C° 0 mm 0 mps 713 mmHg 84%

    25 March, Monday

    Time Temperature Precipitation Wind Pressure Humidity
    00:00 +7°C° 2.4 mm 0 mps 713 mmHg 88%
    01:00 +7°C° 2.4 mm 1 mps 713 mmHg 91%
    02:00 +7°C° 2.4 mm 1 mps 712 mmHg 95%
    03:00 +7°C° 0.9 mm 1 mps 712 mmHg 95%
    04:00 +7°C° 0.9 mm 1 mps 712 mmHg 95%
    05:00 +7°C° 0.9 mm 1 mps 712 mmHg 95%
    06:00 +7°C° 0.2 mm 1 mps 712 mmHg 93%
    07:00 +6°C° 0.2 mm 1 mps 712 mmHg 92%
    08:00 +6°C° 0.2 mm 1 mps 712 mmHg 90%
    09:00 +6°C° 0.1 mm 2 mps 712 mmHg 83%
    10:00 +7°C° 0.1 mm 2 mps 712 mmHg 75%
    11:00 +8°C° 0.1 mm 3 mps 713 mmHg 68%
    12:00 +8°C° 0 mm 3 mps 712 mmHg 62%
    13:00 +8°C° 0 mm 4 mps 712 mmHg 55%
    14:00 +8°C° 0 mm 5 mps 712 mmHg 48%
    15:00 +8°C° 0 mm 5 mps 711 mmHg 49%
    16:00 +7°C° 0 mm 5 mps 711 mmHg 50%
    17:00 +7°C° 0 mm 5 mps 711 mmHg 51%
    18:00 +5°C° 0 mm 4 mps 711 mmHg 56%
    19:00 +4°C° 0 mm 4 mps 711 mmHg 61%
    20:00 +2°C° 0 mm 3 mps 711 mmHg 66%
    21:00 +3°C° 0 mm 2 mps 711 mmHg 67%
    22:00 +2°C° 0 mm 2 mps 711 mmHg 68%
    23:00 +2°C° 0 mm 1 mps 711 mmHg 69%

    26 March, Tuesday

    Time Temperature Precipitation Wind Pressure Humidity
    00:00 +3°C° 0 mm 1 mps 711 mmHg 69%
    01:00 +3°C° 0 mm 1 mps 711 mmHg 69%
    02:00 +3°C° 0 mm 1 mps 710 mmHg 69%
    03:00 +3°C° 0.1 mm 1 mps 710 mmHg 72%
    04:00 +3°C° 0.1 mm 1 mps 709 mmHg 75%
    05:00 +1°C° 0.1 mm 2 mps 709 mmHg 77%
    06:00 +1°C° 0.5 mm 2 mps 709 mmHg 79%
    07:00 +1°C° 0.5 mm 2 mps 708 mmHg 81%
    08:00 0°C° 0.5 mm 3 mps 708 mmHg 83%
    09:00 +1°C° 0.2 mm 3 mps 708 mmHg 77%
    10:00 +1°C° 0.2 mm 4 mps 708 mmHg 70%
    11:00 +1°C° 0.2 mm 4 mps 708 mmHg 64%
    12:00 +1°C° 0.5 mm 4 mps 707 mmHg 66%
    13:00 0°C° 0.5 mm 4 mps 707 mmHg 69%
    14:00 -1°C° 0.5 mm 4 mps 706 mmHg 72%
    15:00 -1°C° 0.2 mm 4 mps 707 mmHg 70%
    16:00 -1°C° 0.2 mm 4 mps 707 mmHg 67%
    17:00 0°C° 0.2 mm 4 mps 707 mmHg 65%
    18:00 -2°C° 0.1 mm 4 mps 708 mmHg 70%
    19:00 -2°C° 0.1 mm 3 mps 708 mmHg 74%
    20:00 -4°C° 0.1 mm 3 mps 708 mmHg 78%
    21:00 -4°C° 0.1 mm 3 mps 709 mmHg 82%
    22:00 -3°C° 0.1 mm 2 mps 709 mmHg 86%
    23:00 -3°C° 0.1 mm 2 mps 709 mmHg 90%
    Show more